Location: Austin
(30.3000°N, 97.7500°W)
Time: 07:09:48
(UTC-06:00)

SL-8 Rocket - Pass Details

Date: 10 January 2026
Orbit: 956 x 990 km, 82.9° (Epoch: 22 January)

Event Time Altitude Azimuth Distance (km) Brightness Sun altitude
Rises 18:50:41 0° 355° (N) 3,662 6.9 -13.3°
Reaches altitude 10° 18:53:12 10° 356° (N) 2,707 6.2 -13.8°
Maximum altitude 18:59:25 83° 85° (E) 971 3.9 -15.1°
Drops below altitude 10° 19:05:33 10° 173° (S) 2,677 6.4 -16.3°
Sets 19:08:01 0° 174° (S) 3,618 7.1 -16.8°
